Location: Eyeline Observatory
(43.2182°N, 78.8632°W)
Time: 13:59:31
(UTC-05:00)

Vanguard 2 - Visible Passes

Search period start: 13 December 2017 00:00
Search period end: 23 December 2017 00:00
Orbit: 553 x 2939 km, 32.9° (Epoch: 13 December)

Date Brightness Start Highest point End Pass type
(mag) Time Alt. Az. Time Alt. Az. Time Alt. Az.
13 Dec 9.1 18:16:22 10° WSW 18:20:10 22° S 18:23:05 11° SE visible
14 Dec 9.2 18:34:31 10° WSW 18:38:00 19° SSW 18:40:23 13° SSE visible
15 Dec 9.3 18:52:52 10° WSW 18:55:47 16° SSW 18:57:45 12° S visible
16 Dec 9.6 19:11:41 10° SW 19:13:31 12° SSW 19:15:09 10° S visible
17 Dec 9.5 17:18:44 10° WSW 17:24:02 26° SSW 17:27:56 10° SE visible
18 Dec 9.6 17:36:58 10° WSW 17:41:50 23° SSW 17:45:30 10° SSE visible
19 Dec 9.8 17:55:22 10° WSW 17:59:32 19° SSW 18:02:50 10° SSE visible
20 Dec 10.0 18:14:09 10° WSW 18:17:11 14° SSW 18:19:44 10° S visible
